Location: Tauranga
(37.6860°S, 176.1670°E)
Time: 18:37:05
(UTC+13:00)

Cosmos 1745 Rocket - Pass Details

Date: 24 January 2019
Orbit: 953 x 997 km, 83.0° (Epoch: 21 October)

Event Time Altitude Azimuth Distance (km) Brightness Sun altitude
Exits shadow 23:05:42 29° 339° (NNW) 1,763 5.0 -24.1°
Maximum altitude 23:09:11 70° 262° (W) 1,065 4.2 -24.5°
Drops below altitude 10° 23:15:34 10° 178° (S) 2,780 7.1 -25.2°
Sets 23:18:08 0° 175° (S) 3,729 7.8 -25.5°
